| time (UTC) | temp F | wind direction | speed MPH | gust MPH | rain 1hr in | rain 24hr in | rain mn in | humidity % | barometer mb |
| 20260506061527 | 45 | 305 | 1.0 | 2.0 | 0.09 | 1.30 | 0.18 | 90 | 1007.8 |
| 20260506044515 | 46 | 293 | 0.0 | 4.0 | 0.08 | 1.17 | 0.06 | 91 | 1008.6 |
| 20260506043016 | 47 | 333 | 1.0 | 6.0 | 0.09 | 1.16 | 0.05 | 91 | 1008.8 |
| 20260506041534 | 48 | 283 | 0.0 | 3.0 | 0.08 | 1.15 | 0.03 | 92 | 1008.8 |
| 20260506040006 | 47 | 300 | 0.0 | 2.0 | 0.08 | 1.12 | 0.00 | 92 | 1009.0 |
| 20260506034506 | 48 | 300 | 1.0 | 2.0 | 0.09 | 1.10 | 1.10 | 92 | 1009.1 |
| 20260506033017 | 48 | 300 | 1.0 | 2.0 | 0.11 | 1.08 | 1.08 | 92 | 1009.2 |
| 20260506031520 | 48 | 292 | 0.0 | 1.0 | 0.15 | 1.07 | 1.07 | 92 | 1009.6 |
| 20260506030023 | 48 | 260 | 0.0 | 1.0 | 0.16 | 1.04 | 1.04 | 92 | 1009.5 |
| 20260506024507 | 48 | 320 | 1.0 | 2.0 | 0.19 | 1.01 | 1.01 | 92 | 1009.0 |
| 20260506023012 | 48 | 98 | 0.0 | 1.0 | 0.23 | 0.97 | 0.97 | 91 | 1008.9 |
| 20260506021514 | 48 | 79 | 1.0 | 2.0 | 0.25 | 0.92 | 0.92 | 91 | 1008.8 |
| 20260506020022 | 48 | 321 | 0.0 | 1.0 | 0.26 | 0.88 | 0.88 | 91 | 1008.8 |
| 20260506014526 | 48 | 309 | 0.0 | 1.0 | 0.23 | 0.82 | 0.82 | 91 | 1008.9 |
| 20260506013038 | 48 | 281 | 0.0 | 2.0 | 0.15 | 0.74 | 0.74 | 91 | 1008.8 |
| 20260506011522 | 48 | 245 | 1.0 | 3.0 | 0.09 | 0.67 | 0.67 | 91 | 1008.6 |
| 20260506010021 | 48 | 288 | 0.0 | 1.0 | 0.04 | 0.62 | 0.62 | 91 | 1008.5 |
| 20260506004522 | 48 | 46 | 0.0 | 1.0 | 0.06 | 0.58 | 0.58 | 91 | 1008.6 |
| 20260506003024 | 48 | 79 | 0.0 | 1.0 | 0.10 | 0.58 | 0.58 | 91 | 1008.4 |
| 20260506001526 | 48 | 95 | 0.0 | 3.0 | 0.16 | 0.58 | 0.58 | 91 | 1008.4 |
| 20260506000014 | 48 | 79 | 0.0 | 3.0 | 0.23 | 0.58 | 0.58 | 91 | 1008.6 |
| 20260505234517 | 48 | 293 | 0.0 | 1.0 | 0.20 | 0.52 | 0.52 | 90 | 1008.7 |
| 20260505233027 | 48 | 289 | 2.0 | 8.0 | 0.17 | 0.49 | 0.49 | 90 | 1008.5 |
| 20260505231506 | 49 | 306 | 6.0 | 11.0 | 0.10 | 0.42 | 0.42 | 89 | 1008.9 |
| 20260505230009 | 50 | 302 | 3.0 | 5.0 | 0.05 | 0.35 | 0.35 | 90 | 1008.4 |
| 20260505224516 | 51 | 6 | 1.0 | 3.0 | 0.04 | 0.33 | 0.33 | 90 | 1008.4 |
| 20260505223003 | 51 | 311 | 1.0 | 2.0 | 0.05 | 0.32 | 0.32 | 90 | 1008.5 |
| 20260505221505 | 51 | 289 | 0.0 | 5.0 | 0.19 | 0.32 | 0.32 | 89 | 1008.6 |
| 20260505220025 | 51 | 312 | 4.0 | 9.0 | 0.20 | 0.30 | 0.30 | 88 | 1008.6 |
| 20260505214518 | 54 | 283 | 3.0 | 10.0 | 0.21 | 0.29 | 0.29 | 88 | 1008.2 |
| 20260505213017 | 56 | 278 | 0.0 | 2.0 | 0.24 | 0.27 | 0.27 | 90 | 1008.2 |
| 20260505211504 | 56 | 264 | 1.0 | 3.0 | 0.11 | 0.13 | 0.13 | 89 | 1008.3 |
| 20260505210004 | 56 | 303 | 0.0 | 3.0 | 0.08 | 0.10 | 0.10 | 89 | 1007.9 |
| 20260505204510 | 56 | 304 | 2.0 | 6.0 | 0.06 | 0.08 | 0.08 | 87 | 1008.0 |
| 20260505203014 | 57 | 314 | 2.0 | 6.0 | 0.01 | 0.03 | 0.03 | 84 | 1008.1 |
| 20260505201518 | 58 | 292 | 3.0 | 6.0 | 0.01 | 0.02 | 0.02 | 83 | 1007.8 |
| 20260505200034 | 61 | 301 | 4.0 | 6.0 | 0.02 | 0.02 | 0.02 | 79 | 1007.9 |
| 20260505194511 | 61 | 260 | 2.0 | 4.0 | 0.02 | 0.02 | 0.02 | 77 | 1007.9 |
| 20260505193015 | 62 | 259 | 1.0 | 2.0 | 0.02 | 0.02 | 0.02 | 77 | 1007.9 |
| 20260505191526 | 63 | 287 | 0.0 | 3.0 | 0.01 | 0.01 | 0.01 | 72 | 1008.1 |
| 20260505190019 | 64 | 205 | 0.0 | 6.0 | 0.00 | 0.00 | 0.00 | 68 | 1008.3 |
| 20260505184524 | 64 | 304 | 2.0 | 6.0 | 0.00 | 0.00 | 0.00 | 66 | 1008.3 |
| 20260505183007 | 65 | 321 | 3.0 | 6.0 | 0.00 | 0.00 | 0.00 | 65 | 1008.3 |
| 20260505181519 | 65 | 318 | 3.0 | 8.0 | 0.00 | 0.00 | 0.00 | 64 | 1008.2 |
| 20260505180022 | 65 | 266 | 5.0 | 12.0 | 0.00 | 0.00 | 0.00 | 63 | 1008.1 |
| 20260505174525 | 65 | 289 | 4.0 | 13.0 | 0.00 | 0.00 | 0.00 | 64 | 1008.0 |
| 20260505173024 | 65 | 254 | 3.0 | 9.0 | 0.00 | 0.00 | 0.00 | 62 | 1008.0 |
| 20260505171510 | 67 | 254 | 5.0 | 14.0 | 0.00 | 0.00 | 0.00 | 61 | 1007.9 |
| 20260505170013 | 67 | 271 | 6.0 | 13.0 | 0.00 | 0.00 | 0.00 | 61 | 1007.8 |
| 20260505164520 | 68 | 315 | 5.0 | 14.0 | 0.00 | 0.00 | 0.00 | 59 | 1007.8 |
| 20260505163026 | 68 | 293 | 3.0 | 14.0 | 0.00 | 0.00 | 0.00 | 58 | 1007.5 |
| 20260505161538 | 69 | 307 | 4.0 | 12.0 | 0.00 | 0.00 | 0.00 | 56 | 1007.4 |
| 20260505153021 | 67 | 259 | 2.0 | 10.0 | 0.00 | 0.00 | 0.00 | 60 | 1007.0 |
| 20260505151524 | 66 | 323 | 3.0 | 9.0 | 0.00 | 0.00 | 0.00 | 61 | 1007.2 |
| 20260505124513 | 61 | 298 | 1.0 | 10.0 | 0.00 | 0.00 | 0.00 | 71 | 1006.8 |
| 20260505123008 | 61 | 323 | 2.0 | 9.0 | 0.00 | 0.00 | 0.00 | 70 | 1006.5 |
| 20260505121526 | 61 | 216 | 3.0 | 9.0 | 0.00 | 0.00 | 0.00 | 70 | 1006.3 |
| 20260505120010 | 61 | 129 | 3.0 | 9.0 | 0.00 | 0.00 | 0.00 | 68 | 1005.7 |
| 20260505114508 | 61 | 42 | 1.0 | 8.0 | 0.00 | 0.00 | 0.00 | 69 | 1006.1 |
| 20260505113013 | 62 | 191 | 2.0 | 15.0 | 0.00 | 0.00 | 0.00 | 66 | 1005.8 |
| 20260505111512 | 63 | 113 | 3.0 | 7.0 | 0.00 | 0.00 | 0.00 | 64 | 1005.8 |
| 20260505101516 | 63 | 197 | 3.0 | 11.0 | 0.00 | 0.00 | 0.00 | 63 | 1005.2 |
| 20260505100016 | 63 | 158 | 4.0 | 10.0 | 0.00 | 0.00 | 0.00 | 63 | 1004.8 |
| 20260505094514 | 63 | 203 | 4.0 | 11.0 | 0.00 | 0.00 | 0.00 | 63 | 1004.6 |
| 20260505093018 | 63 | 193 | 2.0 | 8.0 | 0.00 | 0.00 | 0.00 | 63 | 1004.2 |
| 20260505091514 | 63 | 127 | 3.0 | 8.0 | 0.00 | 0.00 | 0.00 | 63 | 1004.0 |
| 20260505090036 | 63 | 238 | 1.0 | 6.0 | 0.00 | 0.00 | 0.00 | 64 | 1004.3 |
| 20260505084516 | 63 | 136 | 2.0 | 8.0 | 0.00 | 0.00 | 0.00 | 64 | 1004.3 |
| 20260505083020 | 63 | 95 | 2.0 | 9.0 | 0.00 | 0.00 | 0.00 | 64 | 1004.3 |
| 20260505081520 | 64 | 70 | 2.0 | 13.0 | 0.00 | 0.00 | 0.00 | 63 | 1004.1 |
| 20260505080032 | 64 | 187 | 3.0 | 8.0 | 0.00 | 0.00 | 0.00 | 64 | 1004.0 |
| 20260505074526 | 64 | 210 | 3.0 | 8.0 | 0.00 | 0.00 | 0.00 | 64 | 1003.8 |
| 20260505073029 | 64 | 250 | 3.0 | 11.0 | 0.00 | 0.00 | 0.00 | 64 | 1003.7 |
| 20260505071520 | 64 | 269 | 3.0 | 10.0 | 0.00 | 0.00 | 0.00 | 63 | 1003.9 |
| 20260505070021 | 64 | 27 | 3.0 | 9.0 | 0.00 | 0.00 | 0.00 | 63 | 1003.8 |
| 20260505064520 | 64 | 82 | 2.0 | 10.0 | 0.00 | 0.00 | 0.00 | 63 | 1003.8 |